Location: ??????
(56.0120°N, 39.1740°E)
Time: 22:01:31
(UTC+00:00)

CSL-04 Rocket - Pass Details

Date: 14 April 2026
Orbit: 804 x 858 km, 98.7° (Epoch: 13 May)

Event Time Altitude Azimuth Distance (km) Brightness Sun altitude
Rises 17:01:10 0° 168° (SSE) 3,415 6.5 -5.1°
Reaches altitude 10° 17:03:33 10° 171° (S) 2,487 5.8 -5.4°
Maximum altitude 17:09:04 72° 256° (WSW) 908 4.1 -6.1°
Drops below altitude 10° 17:14:39 10° 341° (NNW) 2,506 6.9 -6.8°
Sets 17:17:03 0° 343° (NNW) 3,444 7.6 -7.1°
